CW0730 Weather Reports


time (UTC)temp
C
wind
direction
speed
KPH
gust
KPH
rain 1hr
cm
rain 24hr
cm
rain mn
cm
humidity
%
barometer
mb
20260508100030 6 278 3.2 11.3 0.00 0.00 0.00 74 1003.3
20260508094530 5 238 1.6 8.0 0.00 0.00 0.00 74 1003.2
20260508093027 5 298 3.2 11.3 0.00 0.00 0.00 73 1003.1
20260508091535 5 304 4.8 8.0 0.00 0.00 0.00 73 1002.9
20260508090036 5 250 6.4 12.9 0.00 0.00 0.00 71 1002.9
20260508084523 6 295 3.2 9.7 0.00 0.00 0.00 72 1002.8
20260508083021 6 279 4.8 12.9 0.00 0.00 0.00 71 1002.7
20260508081520 6 223 4.8 17.7 0.00 0.00 0.00 70 1002.7
20260508080033 6 225 6.4 16.1 0.00 0.00 0.00 70 1002.7
20260508074527 6 255 6.4 14.5 0.00 0.00 0.00 69 1002.5
20260508073016 6 266 9.7 17.7 0.00 0.00 0.00 66 1002.4
20260508071523 6 309 6.4 19.3 0.00 0.00 0.00 67 1002.3
20260508070015 6 205 6.4 16.1 0.00 0.00 0.00 66 1002.5
20260508064518 6 311 6.4 16.1 0.00 0.08 0.00 66 1002.5
20260508063013 6 252 8.0 17.7 0.00 0.08 0.00 66 1002.7
20260508061510 6 226 6.4 16.1 0.00 0.08 0.00 66 1002.8
20260508060007 7 258 6.4 14.5 0.00 0.08 0.00 67 1002.8
20260508054508 7 288 6.4 22.5 0.00 0.69 0.00 64 1002.9
20260508053004 7 253 8.0 17.7 0.00 0.69 0.00 65 1003.0
20260508051503 7 266 4.8 17.7 0.00 0.69 0.00 65 1003.1
20260508050059 7 293 6.4 17.7 0.00 0.69 0.00 62 1003.2
20260508044605 7 259 8.0 24.1 0.00 0.71 0.00 60 1003.2
20260508043107 7 283 4.8 12.9 0.00 0.71 0.00 64 1003.3
20260508041552 7 295 4.8 16.1 0.00 0.71 0.00 59 1003.4
20260508040051 7 295 4.8 14.5 0.00 0.71 0.00 59 1003.4
20260508034548 8 265 8.0 14.5 0.00 0.71 0.71 61 1003.5
20260508033048 8 246 6.4 16.1 0.00 0.71 0.71 59 1003.6
20260508031546 8 264 4.8 12.9 0.00 0.71 0.71 60 1003.7
20260508030049 8 300 6.4 14.5 0.00 0.71 0.71 60 1003.5
20260508024546 8 288 3.2 14.5 0.00 0.71 0.71 63 1003.4
20260508023046 8 293 3.2 9.7 0.00 0.71 0.71 60 1003.4
20260508021549 8 317 4.8 9.7 0.00 0.71 0.71 57 1003.3
20260508020046 9 333 6.4 12.9 0.00 0.71 0.71 55 1003.4
20260508014545 9 323 6.4 16.1 0.00 1.07 0.71 54 1003.4
20260508013045 10 339 6.4 16.1 0.00 1.07 0.71 55 1003.5
20260508011544 10 310 11.3 25.7 0.00 1.07 0.71 53 1003.4
20260508010046 10 344 14.5 25.7 0.00 1.07 0.71 53 1003.1
20260508004546 11 324 9.7 24.1 0.00 1.40 0.71 53 1003.0
20260508003043 11 315 8.0 22.5 0.00 1.40 0.71 53 1002.6
20260508001541 11 338 9.7 20.9 0.00 1.40 0.71 59 1002.4
20260508000041 12 292 4.8 20.9 0.00 1.40 0.71 60 1002.0
20260507234543 12 282 9.7 27.4 0.00 1.80 0.71 56 1001.7
20260507233040 12 300 12.9 25.7 0.00 1.80 0.71 58 1001.3
20260507231543 12 278 3.2 16.1 0.00 1.80 0.71 67 1001.1
20260507230037 11 193 3.2 8.0 0.00 1.80 0.71 78 1000.8
20260507224538 11 193 3.2 8.0 0.00 2.01 0.71 76 1000.6
20260507223036 11 163 3.2 11.3 0.00 2.01 0.71 76 1000.3
20260507221536 11 185 4.8 16.1 0.00 2.01 0.71 79 1000.3
20260507220036 10 202 11.3 17.7 0.00 2.01 0.71 83 1000.3
20260507214548 9 197 16.1 24.1 0.00 2.13 0.71 84 1000.3
20260507213036 8 189 25.7 32.2 0.00 2.13 0.71 86 1000.4
20260507211535 9 189 19.3 29.0 0.00 2.13 0.71 82 1000.4
20260507210048 10 176 14.5 24.1 0.00 2.13 0.71 79 1000.3
20260507204535 11 190 14.5 25.7 0.00 2.18 0.71 77 1000.1
20260507203042 11 190 16.1 25.7 0.00 2.18 0.71 76 1000.0
20260507201540 11 150 16.1 25.7 0.00 2.18 0.71 78 1000.0
20260507200036 12 166 14.5 27.4 0.00 2.18 0.71 76 1000.1
20260507194555 12 155 17.7 30.6 0.00 2.18 0.71 77 1000.2
20260507193034 12 179 24.1 35.4 0.00 2.18 0.71 72 1000.1
20260507191533 13 168 12.9 22.5 0.00 2.18 0.71 73 1000.4
20260507190033 13 185 12.9 24.1 0.00 2.18 0.71 73 1000.4
20260507184531 12 149 16.1 24.1 0.00 2.18 0.71 76 1000.6
20260507183035 12 184 16.1 30.6 0.00 2.18 0.71 79 1000.7
20260507181529 12 169 16.1 32.2 0.00 2.18 0.71 80 1000.8
20260507180031 11 188 22.5 32.2 0.00 2.18 0.71 81 1000.9
20260507174536 10 188 22.5 33.8 0.00 2.18 0.71 85 1001.1
20260507173035 10 160 20.9 30.6 0.00 2.18 0.71 87 1001.1
20260507171527 11 209 14.5 24.1 0.00 2.18 0.71 86 1001.1
20260507170028 11 179 14.5 27.4 0.00 2.18 0.71 83 1001.2
20260507164527 11 179 17.7 25.7 0.00 2.18 0.71 80 1001.3
20260507163025 11 193 16.1 22.5 0.00 2.18 0.71 80 1001.4
20260507161526 12 184 11.3 19.3 0.00 2.18 0.71 79 1001.5
20260507160026 12 192 14.5 19.3 0.00 2.18 0.71 74 1001.6
20260507154529 13 271 1.6 9.7 0.00 2.18 0.71 68 1001.7
20260507153030 13 333 4.8 8.0 0.00 2.18 0.71 66 1001.8
20260507151514 13 274 1.6 8.0 0.00 2.18 0.71 70 1001.9
20260507150011 12 213 3.2 9.7 0.00 2.18 0.71 69 1001.9
20260507144507 13 210 1.6 8.0 0.00 2.18 0.71 73 1002.0
20260507143004 11 307 4.8 11.3 0.00 2.18 0.71 74 1002.3
20260507141559 11 270 4.8 11.3 0.00 2.18 0.71 75 1002.4
20260507140055 11 328 8.0 12.9 0.00 2.18 0.71 75 1002.5
20260507134555 11 291 4.8 9.7 0.00 2.18 0.71 75 1002.5
20260507133048 10 293 4.8 14.5 0.00 2.18 0.71 77 1002.8
20260507131603 10 333 6.4 16.1 0.00 2.18 0.71 80 1002.8
20260507130041 10 317 8.0 16.1 0.00 2.18 0.71 84 1002.6
20260507124535 9 293 6.4 12.9 0.00 2.18 0.71 86 1002.8
20260507123032 9 290 8.0 14.5 0.00 2.18 0.71 87 1002.5
20260507121529 8 312 6.4 12.9 0.00 2.18 0.71 90 1002.6
20260507120025 8 285 4.8 9.7 0.00 2.18 0.71 92 1002.8
20260507114523 8 264 4.8 9.7 0.00 2.18 0.71 96 1003.3
20260507113020 7 277 3.2 9.7 0.00 2.18 0.71 96 1003.2
20260507111518 7 287 1.6 9.7 0.00 2.18 0.71 96 1003.3
20260507110016 7 313 4.8 11.3 0.00 2.18 0.71 97 1003.2
20260507104515 7 276 4.8 9.7 0.00 2.18 0.71 98 1003.1
20260507103025 7 297 3.2 9.7 0.00 2.18 0.71 99 1002.5
20260507101512 7 293 3.2 9.7 0.00 2.18 0.71 99 1002.6